Retour au catalogue

THORAD AGENA D DEB

ActifSSO
NORAD 5153·DEBRIS·🇺🇸 United States

Lancé Apr 8, 1970 depuis Vandenberg Space Force Base

Loading…

Prochains Passages (prochaines 24 heures)

TLE

FraisSource: Space-Track

Époque: Sep 13, 2026, 07:26 UTC

1 05153U 70025JW  26256.31006789  .00000263  00000-0  42614-3 0  9994
2 05153  99.9843  12.7197 0032959  33.6578  25.4447 13.58186731781178

Suivez THORAD AGENA D DEB en temps réel avec AllMySat

Download on the App Store